Total_Precipitation_Accumulation
0.43 0.64 0.86 0.80 0.75 0.80 0.82 0.84 0.87 0.79 0.58 0.58 0.55 0.46 0.42 0.40 0.38 0.37 0.33 0.26 0.24 0.22 0.18 0.18 0.23 0.25 0.24 0.23 0.26 0.32 0.36 0.44 0.53 0.61 0.75 0.96 1.24 1.35 1.44 1.40 1.22 1.16 1.28 1.52
0.49 0.55 0.51 0.47 0.55 0.71 0.79 0.90 0.88 0.79 0.53 0.47 0.46 0.38 0.34 0.35 0.38 0.34 0.32 0.26 0.20 0.17 0.12 0.11 0.13 0.15 0.16 0.17 0.18 0.24 0.32 0.42 0.51 0.60 0.77 0.94 1.08 1.08 1.26 1.41 1.39 1.30 1.29 1.44
0.47 0.43 0.36 0.42 0.53 0.71 0.75 0.74 0.75 0.74 0.56 0.46 0.41 0.40 0.29 0.27 0.31 0.29 0.27 0.24 0.21 0.18 0.12 0.10 0.11 0.10 0.11 0.12 0.13 0.17 0.24 0.35 0.48 0.64 0.87 1.09 1.27 1.36 1.42 1.35 1.43 1.44 1.37 1.41
0.48 0.38 0.35 0.44 0.51 0.56 0.65 0.44 0.42 0.47 0.58 0.57 0.48 0.52 0.31 0.28 0.34 0.34 0.30 0.24 0.22 0.20 0.14 0.12 0.10 0.11 0.11 0.11 0.10 0.14 0.23 0.38 0.59 0.80 1.06 1.31 1.51 1.55 1.44 1.48 1.51 1.39 1.34 1.30
0.42 0.34 0.33 0.39 0.38 0.35 0.41 0.34 0.31 0.37 0.46 0.43 0.34 0.41 0.33 0.32 0.42 0.40 0.35 0.30 0.24 0.21 0.19 0.17 0.15 0.17 0.18 0.17 0.19 0.25 0.46 0.71 0.96 1.17 1.43 1.72 1.72 1.61 1.51 1.51 1.48 1.42 1.43 1.40
0.35 0.29 0.31 0.30 0.28 0.27 0.30 0.32 0.34 0.37 0.43 0.42 0.28 0.33 0.39 0.35 0.39 0.42 0.40 0.34 0.26 0.22 0.26 0.31 0.34 0.39 0.44 0.48 0.62 0.81 1.08 1.27 1.36 1.49 1.64 1.76 1.73 1.74 1.68 1.50 1.40 1.40 1.44 1.49
0.30 0.27 0.22 0.20 0.24 0.24 0.23 0.34 0.52 0.55 0.55 0.41 0.25 0.39 0.46 0.37 0.32 0.32 0.33 0.28 0.23 0.27 0.36 0.48 0.62 0.74 0.86 0.98 1.12 1.25 1.43 1.59 1.54 1.51 1.56 1.59 1.60 1.59 1.57 1.51 1.41 1.36 1.37 1.38
0.30 0.30 0.19 0.15 0.17 0.18 0.20 0.29 0.56 0.67 0.54 0.40 0.36 0.56 0.56 0.44 0.33 0.25 0.19 0.19 0.28 0.41 0.54 0.65 0.73 0.84 1.01 1.15 1.21 1.21 1.32 1.43 1.40 1.38 1.35 1.32 1.37 1.40 1.35 1.28 1.26 1.29 1.36 1.34
0.20 0.18 0.10 0.09 0.11 0.12 0.16 0.20 0.28 0.43 0.34 0.34 0.45 0.68 0.60 0.39 0.33 0.27 0.23 0.27 0.42 0.61 0.81 0.96 1.06 1.18 1.22 1.26 1.32 1.24 1.23 1.29 1.30 1.24 1.15 1.13 1.18 1.24 1.25 1.19 1.20 1.19 1.18 1.11
0.12 0.12 0.07 0.06 0.08 0.10 0.17 0.25 0.33 0.52 0.58 0.58 0.61 0.70 0.60 0.47 0.44 0.47 0.53 0.64 0.69 0.80 1.05 1.34 1.59 1.76 1.58 1.31 1.21 1.17 1.09 1.10 1.19 1.17 1.10 1.06 1.13 1.14 1.12 1.15 1.12 1.11 1.11 1.03
0.08 0.11 0.07 0.06 0.09 0.13 0.20 0.32 0.40 0.53 0.63 0.79 0.96 1.03 0.85 0.86 0.88 0.96 1.07 1.11 1.12 1.21 1.20 1.35 1.55 1.72 1.62 1.31 1.08 1.09 1.10 1.06 1.04 1.05 1.07 1.07 1.04 0.93 0.92 0.97 0.97 0.96 0.96 1.01
0.05 0.10 0.09 0.06 0.11 0.19 0.31 0.42 0.56 0.76 0.69 0.73 0.93 1.09 0.95 0.94 0.96 1.06 1.23 1.31 1.30 1.21 1.11 1.09 1.15 1.21 1.23 1.09 0.90 0.87 1.00 1.06 1.02 0.99 1.02 1.01 0.91 0.85 0.81 0.80 0.77 0.68 0.66 0.68
0.04 0.14 0.21 0.19 0.29 0.38 0.55 0.63 0.51 0.50 0.56 0.64 0.86 0.86 0.63 0.58 0.74 0.89 1.05 1.13 1.06 1.01 1.08 1.05 0.96 0.90 0.93 0.90 0.83 0.80 0.93 1.08 1.12 1.10 0.94 0.84 0.79 0.75 0.74 0.65 0.61 0.57 0.51 0.52
0.03 0.10 0.19 0.30 0.35 0.43 0.64 0.73 0.57 0.46 0.52 0.53 0.58 0.51 0.37 0.42 0.59 0.66 0.69 0.70 0.71 0.75 0.78 0.72 0.67 0.62 0.62 0.65 0.69 0.75 0.86 0.95 1.08 1.20 1.09 0.94 0.83 0.75 0.70 0.62 0.58 0.53 0.51 0.54
0.02 0.02 0.06 0.09 0.12 0.19 0.37 0.48 0.39 0.28 0.25 0.32 0.33 0.34 0.38 0.46 0.56 0.54 0.48 0.42 0.41 0.41 0.39 0.38 0.38 0.36 0.35 0.35 0.36 0.46 0.59 0.75 0.94 1.16 1.17 1.02 0.94 0.86 0.72 0.65 0.64 0.61 0.64 0.61
0.01 0.01 0.02 0.04 0.05 0.09 0.18 0.21 0.16 0.10 0.13 0.24 0.30 0.36 0.40 0.46 0.53 0.51 0.43 0.35 0.28 0.26 0.26 0.26 0.24 0.22 0.17 0.16 0.18 0.20 0.29 0.46 0.64 0.81 0.90 0.87 0.78 0.67 0.63 0.62 0.60 0.56 0.54 0.50
0.01 0.02 0.04 0.03 0.04 0.05 0.12 0.12 0.12 0.16 0.15 0.16 0.26 0.38 0.46 0.58 0.76 0.67 0.50 0.41 0.28 0.21 0.20 0.19 0.20 0.20 0.18 0.17 0.16 0.17 0.21 0.27 0.38 0.51 0.61 0.61 0.56 0.49 0.45 0.49 0.49 0.46 0.41 0.42
0.02 0.05 0.08 0.07 0.09 0.19 0.24 0.19 0.26 0.34 0.26 0.22 0.29 0.37 0.50 0.83 1.03 0.66 0.43 0.38 0.31 0.21 0.18 0.18 0.18 0.16 0.15 0.13 0.12 0.13 0.16 0.19 0.21 0.26 0.30 0.32 0.32 0.31 0.32 0.34 0.34 0.34 0.33 0.31
0.01 0.05 0.09 0.11 0.14 0.40 0.36 0.19 0.31 0.36 0.31 0.24 0.32 0.37 0.40 0.46 0.41 0.25 0.15 0.16 0.18 0.13 0.10 0.08 0.08 0.07 0.05 0.05 0.04 0.05 0.06 0.07 0.08 0.08 0.10 0.13 0.15 0.18 0.20 0.20 0.23 0.31 0.34 0.35
0.01 0.03 0.07 0.07 0.09 0.24 0.27 0.10 0.17 0.26 0.31 0.13 0.14 0.16 0.11 0.07 0.08 0.11 0.10 0.07 0.05 0.03 0.02 0.02 0.02 0.02 0.01 0.01 0.01 0.01 0.01 0.01 0.02 0.02 0.02 0.03 0.04 0.05 0.08 0.11 0.13 0.18 0.25 0.32
0.00 0.01 0.02 0.02 0.05 0.08 0.05 0.05 0.11 0.25 0.28 0.07 0.04 0.03 0.01 0.01 0.01 0.05 0.10 0.06 0.03 0.01 0.00 0.00 0.00 0.00 0.00 0.00 0.00 0.00 0.00 0.01 0.02 0.03 0.03 0.03 0.02 0.01 0.02 0.03 0.04 0.07 0.12 0.16
0.01 0.01 0.01 0.01 0.02 0.03 0.02 0.05 0.11 0.11 0.05 0.02 0.01 0.01 0.00 0.00 0.00 0.02 0.05 0.03 0.02 0.01 0.00 0.00 0.01 0.00 0.00 0.00 0.00 0.00 0.00 0.00 0.01 0.02 0.03 0.02 0.01 0.01 0.01 0.03 0.03 0.03 0.04 0.07
0.00 0.01 0.01 0.01 0.02 0.02 0.02 0.03 0.03 0.03 0.02 0.00 0.00 0.00 0.00 0.00 0.00 0.00 0.01 0.02 0.01 0.00 0.00 0.00 0.01 0.01 0.00 0.00 0.00 0.00 0.00 0.00 0.01 0.02 0.02 0.02 0.02 0.02 0.02 0.02 0.03 0.02 0.04 0.06
0.00 0.00 0.01 0.01 0.01 0.01 0.01 0.01 0.01 0.01 0.01 0.00 0.00 0.00 0.00 0.00 0.00 0.00 0.00 0.01 0.01 0.00 0.00 0.00 0.00 0.01 0.01 0.00 0.00 0.00 0.01 0.01 0.01 0.01 0.01 0.01 0.02 0.02 0.02 0.03 0.03 0.03 0.03 0.06
0.00 0.01 0.01 0.01 0.00 0.00 0.01 0.01 0.00 0.01 0.01 0.00 0.00 0.00 0.00 0.00 0.00 0.00 0.00 0.01 0.01 0.00 0.00 0.00 0.00 0.01 0.00 0.00 0.00 0.01 0.01 0.01 0.00 0.01 0.01 0.01 0.02 0.03 0.03 0.02 0.02 0.03 0.04 0.06
0.00 0.01 0.01 0.00 0.00 0.00 0.00 0.00 0.00 0.01 0.00 0.00 0.00 0.00 0.00 0.00 0.00 0.00 0.00 0.00 0.00 0.00 0.00 0.00 0.00 0.00 0.01 0.00 0.00 0.00 0.00 0.00 0.00 0.01 0.00 0.01 0.01 0.02 0.03 0.04 0.03 0.03 0.03 0.04